sat.trackr.live / text

‹ back to catalog

STARLINK-30171

NORAD 57469 · 2023-107N

PAYLOAD ACTIVE UNKNOWN

§ Identity

Operator
Country
US
Launch date
2023-07-28
Launch site
AFETR
Launch vehicle
Mass (kg)
RCS (m²)

Purposes: comms

External: N2YO · Heavens-Above · Gunter

§ Orbital elements

Epoch: 2026-05-25T00:48:07.248672Z

Period
94.27 min
Inclination
43.0000°
Eccentricity
0.0001039
Mean motion
15.27562580 rev/d
Perigee alt
482.4 km
Apogee alt
483.8 km
Semi-major
6,861.2 km
B*
-5.4412e-5
RAAN
268.2992°
Arg perigee
295.5775°
Mean anomaly
64.4969°
Rev number
15,678

§ Raw data

STARLINK-301711 57469U 23107N   26145.03341723 -.00001758  00000+0 -54412-4 0  99972 57469  43.0000 268.2992 0001039 295.5775  64.4969 15.27562580156787

JSON: /api/v1/satellites/57469 · /tle

For live sub-satellite position, see the globe view (requires WebGL).

§ Visibility from observer

Set your observer location to see the next 7 days of passes ≥ 10°. The values pass through the URL so the page stays shareable.

No JS? Fill the form by hand. The geolocation button needs JavaScript.